Time,TemperatureF,DewpointF,PressureIn,WindDirection,WindDirectionDegrees,WindSpeedMPH,WindSpeedGustMPH,Humidity,HourlyPrecipIn,Conditions,Clouds,dailyrainin,SoftwareType,DateUTC
2017-10-18 00:12:00,48.5,44.0,30.26,SE,130,0.0,0.0,85,0.00,,,0.00,weatherlink.com 1.10,2017-10-18 04:12:00,
2017-10-18 00:27:00,47.9,44.0,30.26,SE,130,0.0,0.0,86,0.00,,,0.00,weatherlink.com 1.10,2017-10-18 04:27:00,
2017-10-18 00:42:00,47.7,44.0,30.26,SE,130,0.0,0.0,86,0.00,,,0.00,weatherlink.com 1.10,2017-10-18 04:42:00,
2017-10-18 00:57:00,47.1,44.0,30.27,SE,130,0.0,0.0,87,0.00,,,0.00,weatherlink.com 1.10,2017-10-18 04:57:00,
2017-10-18 01:12:00,47.0,44.0,30.27,SE,130,0.0,0.0,88,0.00,,,0.00,weatherlink.com 1.10,2017-10-18 05:12:00,
2017-10-18 01:27:00,46.9,44.0,30.27,SE,130,0.0,0.0,88,0.00,,,0.00,weatherlink.com 1.10,2017-10-18 05:27:00,
2017-10-18 01:42:00,46.7,44.0,30.27,SE,130,0.0,0.0,90,0.00,,,0.00,weatherlink.com 1.10,2017-10-18 05:42:00,
2017-10-18 01:57:00,46.3,44.0,30.27,SE,130,0.0,0.0,90,0.00,,,0.00,weatherlink.com 1.10,2017-10-18 05:57:00,
2017-10-18 02:12:00,45.9,43.0,30.27,SE,130,0.0,0.0,90,0.00,,,0.00,weatherlink.com 1.10,2017-10-18 06:12:00,
2017-10-18 02:27:00,45.5,43.0,30.27,SE,130,0.0,0.0,91,0.00,,,0.00,weatherlink.com 1.10,2017-10-18 06:27:00,
2017-10-18 02:43:00,45.1,43.0,30.27,SE,130,0.0,0.0,92,0.00,,,0.00,weatherlink.com 1.10,2017-10-18 06:43:00,
2017-10-18 02:57:00,45.0,43.0,30.27,SE,130,0.0,0.0,92,0.00,,,0.00,weatherlink.com 1.10,2017-10-18 06:57:00,
2017-10-18 03:12:00,44.9,43.0,30.27,SE,130,0.0,0.0,92,0.00,,,0.00,weatherlink.com 1.10,2017-10-18 07:12:00,
2017-10-18 03:27:00,45.0,43.0,30.27,SE,130,0.0,0.0,92,0.00,,,0.00,weatherlink.com 1.10,2017-10-18 07:27:00,
2017-10-18 03:42:00,44.9,43.0,30.27,SE,130,0.0,0.0,92,0.00,,,0.00,weatherlink.com 1.10,2017-10-18 07:42:00,
2017-10-18 03:57:00,44.9,43.0,30.27,SE,130,0.0,0.0,93,0.00,,,0.00,weatherlink.com 1.10,2017-10-18 07:57:00,
2017-10-18 04:12:00,44.7,43.0,30.28,SE,130,0.0,0.0,93,0.00,,,0.00,weatherlink.com 1.10,2017-10-18 08:12:00,
2017-10-18 04:27:00,44.4,43.0,30.28,SE,130,0.0,0.0,93,0.00,,,0.00,weatherlink.com 1.10,2017-10-18 08:27:00,
2017-10-18 04:42:00,44.3,42.0,30.27,SE,130,0.0,0.0,93,0.00,,,0.00,weatherlink.com 1.10,2017-10-18 08:42:00,
2017-10-18 04:57:00,44.3,43.0,30.28,SE,130,0.0,0.0,94,0.00,,,0.00,weatherlink.com 1.10,2017-10-18 08:57:00,
2017-10-18 05:12:00,44.2,43.0,30.28,SE,130,0.0,0.0,94,0.00,,,0.00,weatherlink.com 1.10,2017-10-18 09:12:00,
2017-10-18 05:27:00,44.1,43.0,30.28,SE,130,0.0,0.0,94,0.00,,,0.00,weatherlink.com 1.10,2017-10-18 09:27:00,
2017-10-18 05:48:00,43.7,42.0,30.29,SE,130,0.0,0.0,94,0.00,,,0.00,weatherlink.com 1.10,2017-10-18 09:48:00,
2017-10-18 05:58:00,43.3,42.0,30.29,SE,130,0.0,0.0,94,0.00,,,0.00,weatherlink.com 1.10,2017-10-18 09:58:00,
2017-10-18 06:12:00,43.1,42.0,30.29,SE,130,0.0,0.0,94,0.00,,,0.00,weatherlink.com 1.10,2017-10-18 10:12:00,
2017-10-18 06:28:00,43.2,42.0,30.29,SE,130,0.0,0.0,95,0.00,,,0.00,weatherlink.com 1.10,2017-10-18 10:28:00,
2017-10-18 06:42:00,43.0,42.0,30.30,SE,130,0.0,0.0,95,0.00,,,0.00,weatherlink.com 1.10,2017-10-18 10:42:00,
2017-10-18 06:58:00,42.7,41.0,30.30,SE,130,0.0,0.0,95,0.00,,,0.00,weatherlink.com 1.10,2017-10-18 10:58:00,
2017-10-18 07:13:00,42.7,41.0,30.30,SE,130,0.0,0.0,95,0.00,,,0.00,weatherlink.com 1.10,2017-10-18 11:13:00,
2017-10-18 07:28:00,42.6,41.0,30.30,SE,130,0.0,0.0,95,0.00,,,0.00,weatherlink.com 1.10,2017-10-18 11:28:00,
2017-10-18 07:43:00,42.6,41.0,30.30,SE,130,0.0,0.0,95,0.00,,,0.00,weatherlink.com 1.10,2017-10-18 11:43:00,
2017-10-18 07:58:00,42.6,41.0,30.31,SE,130,0.0,0.0,95,0.00,,,0.00,weatherlink.com 1.10,2017-10-18 11:58:00,
2017-10-18 08:13:00,42.8,42.0,30.31,SE,130,0.0,0.0,95,0.00,,,0.00,weatherlink.com 1.10,2017-10-18 12:13:00,
2017-10-18 08:28:00,43.8,43.0,30.31,SE,130,0.0,0.0,95,0.00,,,0.00,weatherlink.com 1.10,2017-10-18 12:28:00,
2017-10-18 08:43:00,44.5,43.0,30.32,SE,130,0.0,0.0,95,0.00,,,0.00,weatherlink.com 1.10,2017-10-18 12:43:00,
2017-10-18 08:58:00,45.3,44.0,30.32,SE,130,0.0,0.0,94,0.00,,,0.00,weatherlink.com 1.10,2017-10-18 12:58:00,
2017-10-18 09:13:00,46.3,45.0,30.32,SE,130,0.0,0.0,94,0.00,,,0.00,weatherlink.com 1.10,2017-10-18 13:13:00,
2017-10-18 09:28:00,47.4,45.0,30.33,SE,130,0.0,1.0,92,0.00,,,0.00,weatherlink.com 1.10,2017-10-18 13:28:00,
2017-10-18 09:43:00,48.2,46.0,30.33,SE,130,0.0,0.0,91,0.00,,,0.00,weatherlink.com 1.10,2017-10-18 13:43:00,
2017-10-18 09:58:00,49.2,46.0,30.33,SE,130,0.0,0.0,87,0.00,,,0.00,weatherlink.com 1.10,2017-10-18 13:58:00,
2017-10-18 10:13:00,50.7,46.0,30.33,SSE,159,0.0,1.0,85,0.00,,,0.00,weatherlink.com 1.10,2017-10-18 14:13:00,
2017-10-18 10:28:00,51.8,47.0,30.33,SE,135,0.0,1.0,83,0.00,,,0.00,weatherlink.com 1.10,2017-10-18 14:28:00,
2017-10-18 10:58:00,55.5,48.0,30.32,ESE,110,0.0,1.0,75,0.00,,,0.00,weatherlink.com 1.10,2017-10-18 14:58:00,
2017-10-18 11:13:00,56.8,47.0,30.32,ENE,65,0.0,2.0,69,0.00,,,0.00,weatherlink.com 1.10,2017-10-18 15:13:00,
2017-10-18 11:28:00,58.4,47.0,30.32,ENE,72,0.0,1.0,66,0.00,,,0.00,weatherlink.com 1.10,2017-10-18 15:28:00,
2017-10-18 11:43:00,59.6,47.0,30.32,ENE,66,1.0,3.0,63,0.00,,,0.00,weatherlink.com 1.10,2017-10-18 15:43:00,
2017-10-18 11:58:00,61.0,47.0,30.31,ENE,77,0.0,3.0,61,0.00,,,0.00,weatherlink.com 1.10,2017-10-18 15:58:00,
2017-10-18 12:13:00,62.2,46.0,30.31,ENE,62,0.0,2.0,56,0.00,,,0.00,weatherlink.com 1.10,2017-10-18 16:13:00,
2017-10-18 12:28:00,63.4,48.0,30.30,NE,49,0.0,3.0,57,0.00,,,0.00,weatherlink.com 1.10,2017-10-18 16:28:00,
2017-10-18 12:44:00,64.0,48.0,30.30,NNE,13,0.0,2.0,57,0.00,,,0.00,weatherlink.com 1.10,2017-10-18 16:44:00,
2017-10-18 12:59:00,64.5,47.0,30.29,ENE,60,0.0,4.0,53,0.00,,,0.00,weatherlink.com 1.10,2017-10-18 16:59:00,
2017-10-18 13:14:00,65.8,46.0,30.28,NW,308,0.0,10.0,49,0.00,,,0.00,weatherlink.com 1.10,2017-10-18 17:14:00,
2017-10-18 13:29:00,65.4,46.0,30.27,WNW,296,0.0,8.0,49,0.00,,,0.00,weatherlink.com 1.10,2017-10-18 17:29:00,
2017-10-18 13:44:00,66.3,46.0,30.27,NE,40,1.0,3.0,49,0.00,,,0.00,weatherlink.com 1.10,2017-10-18 17:44:00,
2017-10-18 13:59:00,66.5,45.0,30.26,NE,55,0.0,4.0,47,0.00,,,0.00,weatherlink.com 1.10,2017-10-18 17:59:00,
2017-10-18 14:14:00,67.2,46.0,30.25,WNW,302,0.0,4.0,46,0.00,,,0.00,weatherlink.com 1.10,2017-10-18 18:14:00,
2017-10-18 14:29:00,67.4,45.0,30.23,NE,46,0.0,5.0,45,0.00,,,0.00,weatherlink.com 1.10,2017-10-18 18:29:00,
2017-10-18 14:44:00,68.0,46.0,30.23,NE,42,0.0,5.0,45,0.00,,,0.00,weatherlink.com 1.10,2017-10-18 18:44:00,
2017-10-18 14:59:00,68.2,45.0,30.23,NNE,20,0.0,3.0,44,0.00,,,0.00,weatherlink.com 1.10,2017-10-18 18:59:00,
2017-10-18 15:14:00,68.3,47.0,30.22,NNE,13,1.0,5.0,46,0.00,,,0.00,weatherlink.com 1.10,2017-10-18 19:14:00,
2017-10-18 15:29:00,68.8,46.0,30.22,NE,40,1.0,3.0,44,0.00,,,0.00,weatherlink.com 1.10,2017-10-18 19:29:00,
2017-10-18 15:44:00,69.2,46.0,30.22,NNW,328,1.0,3.0,44,0.00,,,0.00,weatherlink.com 1.10,2017-10-18 19:44:00,
2017-10-18 15:59:00,69.2,46.0,30.21,ENE,61,0.0,5.0,44,0.00,,,0.00,weatherlink.com 1.10,2017-10-18 19:59:00,
2017-10-18 16:14:00,69.5,47.0,30.20,ENE,59,2.0,7.0,44,0.00,,,0.00,weatherlink.com 1.10,2017-10-18 20:14:00,
2017-10-18 16:29:00,69.5,45.0,30.20,NW,309,0.0,4.0,42,0.00,,,0.00,weatherlink.com 1.10,2017-10-18 20:29:00,
2017-10-18 16:44:00,69.5,45.0,30.20,East,80,1.0,4.0,41,0.00,,,0.00,weatherlink.com 1.10,2017-10-18 20:44:00,
2017-10-18 16:59:00,69.9,46.0,30.19,ENE,61,0.0,4.0,43,0.00,,,0.00,weatherlink.com 1.10,2017-10-18 20:59:00,
2017-10-18 17:14:00,69.3,44.0,30.19,NE,51,0.0,4.0,41,0.00,,,0.00,weatherlink.com 1.10,2017-10-18 21:14:00,
2017-10-18 17:34:00,68.8,45.0,30.19,NE,55,0.0,6.0,42,0.00,,,0.00,weatherlink.com 1.10,2017-10-18 21:34:00,
2017-10-18 17:44:00,68.6,46.0,30.19,NE,41,0.0,3.0,44,0.00,,,0.00,weatherlink.com 1.10,2017-10-18 21:44:00,
2017-10-18 17:59:00,68.2,45.0,30.19,NE,54,0.0,2.0,44,0.00,,,0.00,weatherlink.com 1.10,2017-10-18 21:59:00,
2017-10-18 18:14:00,67.4,45.0,30.19,ENE,69,0.0,2.0,45,0.00,,,0.00,weatherlink.com 1.10,2017-10-18 22:14:00,
2017-10-18 18:29:00,66.1,46.0,30.19,NE,53,0.0,1.0,48,0.00,,,0.00,weatherlink.com 1.10,2017-10-18 22:29:00,
2017-10-18 18:44:00,63.5,46.0,30.19,NE,53,0.0,0.0,54,0.00,,,0.00,weatherlink.com 1.10,2017-10-18 22:44:00,
2017-10-18 18:59:00,61.4,46.0,30.19,NE,53,0.0,0.0,58,0.00,,,0.00,weatherlink.com 1.10,2017-10-18 22:59:00,
2017-10-18 19:14:00,59.4,46.0,30.19,NE,53,0.0,0.0,62,0.00,,,0.00,weatherlink.com 1.10,2017-10-18 23:14:00,
2017-10-18 19:30:00,58.1,46.0,30.19,NE,53,0.0,0.0,65,0.00,,,0.00,weatherlink.com 1.10,2017-10-18 23:30:00,
2017-10-18 19:44:00,57.3,46.0,30.19,NE,53,0.0,0.0,66,0.00,,,0.00,weatherlink.com 1.10,2017-10-18 23:44:00,
2017-10-18 19:59:00,57.1,46.0,30.19,NE,53,0.0,0.0,67,0.00,,,0.00,weatherlink.com 1.10,2017-10-18 23:59:00,
2017-10-18 20:14:00,56.5,46.0,30.19,NE,53,0.0,0.0,68,0.00,,,0.00,weatherlink.com 1.10,2017-10-19 00:14:00,
2017-10-18 20:29:00,56.0,46.0,30.19,NE,53,0.0,0.0,69,0.00,,,0.00,weatherlink.com 1.10,2017-10-19 00:29:00,
2017-10-18 20:44:00,55.4,45.0,30.19,NE,53,0.0,0.0,69,0.00,,,0.00,weatherlink.com 1.10,2017-10-19 00:44:00,
2017-10-18 20:59:00,54.9,46.0,30.20,NE,53,0.0,0.0,72,0.00,,,0.00,weatherlink.com 1.10,2017-10-19 00:59:00,
2017-10-18 21:14:00,54.5,46.0,30.19,NE,53,0.0,0.0,74,0.00,,,0.00,weatherlink.com 1.10,2017-10-19 01:14:00,
2017-10-18 21:29:00,53.9,47.0,30.19,NE,53,0.0,0.0,77,0.00,,,0.00,weatherlink.com 1.10,2017-10-19 01:29:00,
2017-10-18 21:44:00,54.0,47.0,30.18,NE,53,0.0,0.0,77,0.00,,,0.00,weatherlink.com 1.10,2017-10-19 01:44:00,
2017-10-18 21:59:00,53.7,47.0,30.18,NE,53,0.0,0.0,77,0.00,,,0.00,weatherlink.com 1.10,2017-10-19 01:59:00,
2017-10-18 22:14:00,53.5,47.0,30.18,NE,53,0.0,0.0,78,0.00,,,0.00,weatherlink.com 1.10,2017-10-19 02:14:00,
2017-10-18 22:29:00,53.5,47.0,30.18,NE,53,0.0,0.0,79,0.00,,,0.00,weatherlink.com 1.10,2017-10-19 02:29:00,